Chippewa, MI

3:01 AM EST on December 09, 2019 (GMT -0500)
Chippewa County International

Weather History for KCIU - November, 2019

Change the Weather History Date:

Monday, November 18, 2019

  Actual Average Record
Temperature  
Mean Temperature 34 °F -  
Max Temperature 37 °F 37 °F 59 °F (2016)
Min Temperature 30 °F 21 °F 3 °F (1992)
Degree Days  
Heating Degree Days 32    
Moisture  
Dew Point 30 °F    
Average Humidity 84    
Maximum Humidity 96    
Minimum Humidity 72    
Precipitation  
Precipitation 0.00 in - - ()
Sea Level Pressure  
Sea Level Pressure 29.77 in    
Wind  
Wind Speed 5 mph ()    
Max Wind Speed 9 mph    
Max Gust Speed -    
Visibility 9.0 miles    
Events Rain , Snow    
Averages and records for this station are not official NWS values.
T = Trace of Precipitation, MM = Missing Value Source: Averaged Metar Reports

Daily Weather History Graph

Daily Weather History Graph

Search for Another Location

Airport or City:

Astronomy

Nov. 18, 2019 Rise Set
Actual Time 7:42 AM EST 5:02 PM EST
Civil Twilight 7:10 AM EST 5:35 PM EST
Nautical Twilight 6:33 AM EST 6:12 PM EST
Astronomical Twilight 5:57 AM EST 6:47 PM EST
Moon 10:45 PM EST (11/18) 1:15 PM EST (11/18)
Length of Visible Light 10h 25m
Length of Day
9h 19m
Waning Gibbous, 63% of the Moon is Illuminated
Nov 18
Waning Gibbous
Nov 19
Last Quarter
Nov 26
New
Dec 4
First Quarter
Dec 12
Full

Hourly Weather History & Observations

Time (EST) Temp. Windchill Dew Point Humidity Pressure Visibility Wind Dir Wind Speed Gust Speed Precip Events Conditions
12:56 AM 33.1 °F 27.7 °F 25.0 °F 72% 29.85 in 10.0 mi SSE 5.8 mph - N/A   Overcast
1:56 AM 33.1 °F 25.5 °F 25.0 °F 72% 29.83 in 10.0 mi SE 9.2 mph - N/A   Overcast
2:56 AM 33.1 °F 27.7 °F 25.0 °F 72% 29.83 in 10.0 mi SSE 5.8 mph - N/A   Overcast
3:56 AM 32.0 °F 25.6 °F 27.0 °F 82% 29.81 in 9.0 mi SSE 6.9 mph - 0.00 in   Overcast
4:16 AM 32.0 °F 26.4 °F 28.4 °F 87% 29.78 in 2.5 mi SSE 5.8 mph - 0.00 in Snow Light Snow
4:25 AM 32.0 °F 27.5 °F 28.4 °F 87% 29.78 in 4.0 mi SE 4.6 mph - 0.00 in Snow Light Snow
4:56 AM 30.9 °F 25.2 °F 28.9 °F 92% 29.81 in 9.0 mi SSE 5.8 mph - 0.00 in Snow Light Snow
5:13 AM 30.2 °F 24.3 °F 28.4 °F 93% 29.79 in 9.0 mi SSE 5.8 mph - 0.00 in Snow Light Snow
5:56 AM 32.0 °F 25.6 °F 28.9 °F 88% 29.81 in 9.0 mi SE 6.9 mph - 0.00 in Snow Light Snow
6:56 AM 33.1 °F 26.1 °F 30.0 °F 89% 29.81 in 9.0 mi SE 8.1 mph - 0.00 in Snow Light Snow
7:56 AM 33.1 °F 26.9 °F 30.9 °F 92% 29.81 in 7.0 mi SSE 6.9 mph - 0.00 in Rain Light Rain
8:48 AM 33.8 °F 28.6 °F 32.0 °F 93% 29.78 in 5.0 mi SSE 5.8 mph - 0.00 in Snow Light Snow
8:56 AM 33.1 °F 27.7 °F 32.0 °F 96% 29.81 in 6.0 mi SSE 5.8 mph - 0.00 in Rain Light Rain
9:56 AM 34.0 °F 28.8 °F 32.0 °F 92% 29.79 in 9.0 mi SE 5.8 mph - 0.00 in   Overcast
10:33 AM 35.6 °F 29.2 °F 32.0 °F 87% 29.77 in 9.0 mi SE 8.1 mph - N/A   Overcast
10:56 AM 35.1 °F 30.1 °F 32.0 °F 89% 29.79 in 9.0 mi SE 5.8 mph - N/A   Overcast
11:41 AM 35.6 °F 30.7 °F 33.8 °F 93% 29.76 in 10.0 mi SE 5.8 mph - N/A   Overcast
11:56 AM 37.0 °F 31.6 °F 32.0 °F 82% 29.78 in 10.0 mi SE 6.9 mph - N/A   Overcast
12:56 PM 37.0 °F 31.0 °F 32.0 °F 82% 29.76 in 10.0 mi SSE 8.1 mph - N/A   Overcast
1:56 PM 37.0 °F 31.6 °F 30.9 °F 79% 29.75 in 10.0 mi SE 6.9 mph - N/A   Overcast
2:56 PM 37.0 °F 33.3 °F 30.9 °F 79% 29.74 in 10.0 mi SSE 4.6 mph - N/A   Overcast
3:10 PM 37.4 °F 32.8 °F 30.2 °F 75% 29.72 in 10.0 mi SE 5.8 mph - N/A   Overcast
3:33 PM 37.4 °F 32.8 °F 30.2 °F 75% 29.72 in 10.0 mi SE 5.8 mph - N/A   Overcast
3:56 PM 36.0 °F 32.1 °F 30.0 °F 79% 29.75 in 10.0 mi SE 4.6 mph - N/A   Overcast
4:56 PM 36.0 °F 32.1 °F 30.0 °F 79% 29.74 in 10.0 mi SE 4.6 mph - N/A   Overcast
5:56 PM 36.0 °F 33.3 °F 30.0 °F 79% 29.75 in 10.0 mi SE 3.5 mph - N/A   Overcast
6:56 PM 36.0 °F 33.3 °F 30.0 °F 79% 29.75 in 10.0 mi SE 3.5 mph - N/A   Overcast
7:56 PM 35.1 °F - 30.0 °F 82% 29.76 in 10.0 mi Calm Calm - N/A   Overcast
8:56 PM 35.1 °F 32.2 °F 30.0 °F 82% 29.75 in 10.0 mi ESE 3.5 mph - N/A   Overcast
9:56 PM 35.1 °F 31.0 °F 30.0 °F 82% 29.74 in 10.0 mi East 4.6 mph - N/A   Overcast
10:56 PM 34.0 °F - 30.9 °F 89% 29.74 in 10.0 mi Calm Calm - N/A   Overcast
11:51 PM 33.8 °F 29.6 °F 32.0 °F 93% 29.71 in 10.0 mi SE 4.6 mph - N/A   Overcast
11:56 PM 34.0 °F 29.8 °F 30.9 °F 89% 29.74 in 10.0 mi SE 4.6 mph - N/A   Overcast